Hourly Data Report for March 30, 2003

TORONTO CITY
ONTARIO

43°40'00.000" N
79°24'00.000" W
112.50 m
6158355
71508
XTO

Download Data

Hourly Data (March 2003)
Hourly Data Report for March 30, 2003
TIME
LST
Temp Definition
°C
Dew Point Definition
°C
Rel Hum Definition
%
Precip. Amount Definition
mm

Wind Dir Definition
10's deg

Wind Spd Definition
km/h
Visibility Definition
km
Stn Press Definition
kPa
Hmdx Definition


Wind Chill Definition


Weather Definition


00:00 1.9 -4.3 63   LegendMM LegendMM LegendMM 100.52     LegendNANA
01:00 1.4 -4.7 64   LegendMM LegendMM LegendMM 100.50     LegendNANA
02:00 1.0 -4.7 66   LegendMM LegendMM LegendMM 100.45     LegendNANA
03:00 0.2 -6.3 62   LegendMM LegendMM LegendMM 100.47     LegendNANA
04:00 -0.1 -6.2 63   LegendMM LegendMM LegendMM 100.46     LegendNANA
05:00 -0.8 -5.9 68   LegendMM LegendMM LegendMM 100.46     LegendNANA
06:00 -1.0 -5.3 73   LegendMM LegendMM LegendMM 100.50     LegendNANA
07:00 -1.3 -4.9 76   LegendMM LegendMM LegendMM 100.52     LegendNANA
08:00 -1.1 -5.8 70   LegendMM LegendMM LegendMM 100.50     LegendNANA
09:00 -0.4 -6.5 63   LegendMM LegendMM LegendMM 100.52     LegendNANA
10:00 -0.3 -6.6 62   LegendMM LegendMM LegendMM 100.44     LegendNANA
11:00 -0.2 -5.9 65   LegendMM LegendMM LegendMM 100.55     LegendNANA
12:00 0.1 -6.2 63   LegendMM LegendMM LegendMM 100.44     LegendNANA
13:00 0.4 -7.0 58   LegendMM LegendMM LegendMM 100.46     LegendNANA
14:00 1.1 -7.0 55   LegendMM LegendMM LegendMM 100.36     LegendNANA
15:00 1.2 -6.7 56   LegendMM LegendMM LegendMM 100.33     LegendNANA
16:00 1.0 -7.1 55   LegendMM LegendMM LegendMM 100.33     LegendNANA
17:00 0.8 -8.0 52   LegendMM LegendMM LegendMM 100.35     LegendNANA
18:00 0.5 -8.3 52   LegendMM LegendMM LegendMM 100.38     LegendNANA
19:00 -0.9 -9.9 50   LegendMM LegendMM LegendMM 100.42     LegendNANA
20:00 -1.4 -9.4 54   LegendMM LegendMM LegendMM 100.45     LegendNANA
21:00 -2.0 -9.9 55   LegendMM LegendMM LegendMM 100.46     LegendNANA
22:00 -2.2 -9.4 58   LegendMM LegendMM LegendMM 100.45     LegendNANA
23:00 -2.4 -8.8 61   LegendMM LegendMM LegendMM 100.44     LegendNANA

Notes on Data Quality.

Legend

  • E = Estimated
  • M = Missing
  • NA = Not Available*
  • [empty] = Indicates an unobserved value
Date modified: